Content
SEND FEEDBACK

Daily
Averages
Monthly
Summary
Malaysia

ALOR SETAR, MALAYSIA


Home > Asia > Malaysia
Elevation: 13 feet     Latitude: 06 11N     Longitude: 100 24E

WEATHER
 
SELECT A DAY
Number of Records: 90,439;   Date Range: 6/24/00 - 7/23/14
 
SHARE

PRINT THIS DATA

[ ← Previous Day ]
WEATHER ALMANAC - APRIL 5, 2013
[ Next Day → ]
[ °C ]   °F
Weather ElementAverageHighLow
Temperature82.9 °F87.8 °F (11:00 am)78.8 °F (1:00 am)
Dewpoint78.9 °F82.4 °F (2:00 pm)75.2 °F (5:00 am)
Humidity87.7 %94 % (1:00 am)79 % (10:00 am)
Barometer29.73 in29.80 in (10:00 am)29.65 in (4:00 pm)
Wind Speed5.5 mph11.5 mph (2:00 pm)
Weather ElementAverage
Visibility6.2 mi
Wind DirectionSSE (172.6 °)

Weather ElementTotal
Precipitation---
Cooling Degree Days18.3 (Base 65)
Growing Degree Days33.3 (Base 50)
Averaged from 23 records on April 5, 2013
WEATHER CONDITIONS BREAKOUT
WIND DIRECTION BREAKOUT
WEATHER BY HOUR - APRIL 5, 2013
[ °C ]   °F
Local TimeTemperatureDewpointHumidityBarometerVisibilityWind DirectionWind SpeedGust SpeedPrecipitationEventsConditions
1:00 AM78.8 °F77.0 °F94 %29.77 in6.2 miEast (100°)3.5 mphMostly Cloudy
2:00 AM78.8 °F77.0 °F94 %29.74 in6.2 miESE (120°)4.6 mphMostly Cloudy
3:00 AM78.8 °F77.0 °F94 %29.71 in6.2 miESE (120°)3.5 mphMostly Cloudy
4:00 AM78.8 °F77.0 °F94 %29.71 in6.2 miESE (110°)4.6 mphMostly Cloudy
5:00 AM78.8 °F75.2 °F89 %29.71 in6.2 miEast (90°)4.6 mphMostly Cloudy
6:00 AM78.8 °F77.0 °F94 %29.71 in6.2 miENE (60°)3.5 mphMostly Cloudy
7:00 AM78.8 °F77.0 °F94 %29.71 in6.2 miENE (60°)3.5 mphMostly Cloudy
8:00 AM80.6 °F77.0 °F89 %29.74 in6.2 miSE (140°)4.6 mphMostly Cloudy
9:00 AM82.4 °F78.8 °F89 %29.77 in6.2 miESE (120°)3.5 mphMostly Cloudy
10:00 AM86.0 °F78.8 °F79 %29.80 in6.2 miSSE (150°)4.6 mphMostly Cloudy
11:00 AM87.8 °F80.6 °F79 %29.80 in6.2 miSouth (180°)3.5 mphMostly Cloudy
12:00 PM87.8 °F80.6 °F79 %29.80 in6.2 miWSW (240°)9.2 mphMostly Cloudy
1:00 PM84.2 °F80.6 °F89 %29.77 in6.2 miSW (230°)9.2 mphRainLight Rain Showers
2:00 PM87.8 °F82.4 °F84 %29.74 in6.2 miSW (230°)11.5 mphMostly Cloudy
3:00 PM87.8 °F80.6 °F79 %29.68 in6.2 miWSW (240°)11.5 mphMostly Cloudy
4:00 PM84.2 °F80.6 °F89 %29.65 in6.2 miWSW (240°)11.5 mphRainLight Rain Showers
5:00 PM86.0 °F80.6 °F84 %29.68 in6.2 miWSW (240°)9.2 mphMostly Cloudy
6:00 PM86.0 °F80.6 °F84 %29.68 in6.2 miWSW (240°)8.1 mphMostly Cloudy
7:00 PM84.2 °F78.8 °F84 %29.68 in6.2 miWSW (240°)6.9 mphMostly Cloudy
8:00 PM84.2 °F80.6 °F89 %29.71 in6.2 miWest (260°)2.3 mphMostly Cloudy
9:00 PM82.4 °F78.8 °F89 %29.74 in6.2 miSW (220°)1.2 mphMostly Cloudy
10:00 PM82.4 °F78.8 °F89 %29.77 in6.2 miNNW (340°)1.2 mphMostly Cloudy
11:00 PM82.4 °F78.8 °F89 %29.80 in6.2 miCalmMostly Cloudy
Hourly data recorded from WMKA, located miles away from Alor Setar, Malaysia







STORIES FROM OUR PARTNERS